Regional Weather Roundup
Issued by NWS Cleveland, OH

Home | Current Version | Previous Version | Text Only | Print | Product List | Glossary Off
Versions: 1 2 3 4 5 6 7 8 9 10 11 12 13 14 15 16 17 18 19 20 21 22 23 24 25 26 27 28 29 30 31 32 33 34 35 36 37 38 39 40 41 42 43 44 45 46 47 48 49 50

000
ASUS41 KCLE 231010
RWRCLE
OHIO REGIONAL WEATHER ROUNDUP
NATIONAL WEATHER SERVICE CLEVELAND, OH
600 AM EDT SUN APR 23 2017

NOTE: "FAIR" INDICATES FEW OR NO CLOUDS BELOW 12,000 FEET WITH NO
SIGNIFICANT WEATHER AND/OR OBSTRUCTIONS TO VISIBILITY.

OHZ001>008-015>018-024>027-034-035-043-044-231100-
   NORTHWEST OHIO

CITY           SKY/WX    TMP DP  RH WIND       PRES   REMARKS
DEFIANCE       CLEAR     35  34  96 CALM      30.12R
FINDLAY        CLEAR     37  30  75 N5        30.09S
TOLEDO EXPRESS CLEAR     36  33  89 CALM      30.12R
TOLEDO EXEC    CLEAR     38  32  79 CALM      30.12R
LIMA           CLEAR     34  30  85 E3        30.08F
$$

OHZ009>014-019>023-028>033-038-089-231100-
   NORTHEAST OHIO

CITY           SKY/WX    TMP DP  RH WIND       PRES   REMARKS
CLE-HOPKINS    CLEAR     37  33  85 S5        30.12S
CLE-LAKEFRONT  CLEAR     41  34  76 CALM      30.10R
CUY CO. ARPT   NOT AVBL
LORAIN-ELYRIA  CLEAR     35  31  85 CALM      30.11R
ASHTABULA      CLEAR     33  32  96 CALM      30.11S
AKRON-CANTON   CLEAR     39  32  76 E5        30.09S
WOOSTER        CLEAR     34  31  88 CALM      30.10S
MANSFIELD      CLEAR     37  31  78 E6        30.08F
YOUNGSTOWN     CLEAR     33  32  96 E6        30.10R WCI  28
$$

OHZ042-051>053-060>062-070>072-077>081-231100-
  SOUTHWEST OHIO

CITY           SKY/WX    TMP DP  RH WIND       PRES   REMARKS
CINC-COVINGTON CLOUDY    44  35  70 NE15      30.01F
CINC-LUNKEN    CLEAR     42  37  82 NE9       30.04F
HAMILTON       CLEAR     42  37  82 NE9       30.05F
DAYTON         CLEAR     35  31  85 NE8       30.07F WCI  29
WRIGHT-PAT AFB CLEAR     38  34  87 NE5       30.06F
DAYTON GENERAL CLEAR     39  35  86 NE8       30.04F
WILMINGTON     CLEAR     39  36  89 NE10      30.04S
$$

OHZ036-037-039>041-045>050-054>059-063>069-073>076-082>088-231100-
  CENTRAL AND SOUTHEAST OHIO

CITY           SKY/WX    TMP DP  RH WIND       PRES   REMARKS
COLUMBUS       CLEAR     39  34  82 N7        30.07S
OSU AIRPORT    CLEAR     35  33  92 N6        30.08S
BOLTON FIELD   CLEAR     37  34  90 NE8       30.07F
RICKENBACK AFB CLEAR     38  35  89 NE7       30.06F
NEWARK         CLEAR     38  33  82 CALM      30.07F
MARION         CLEAR     37  31  78 E3        30.09S
LANCASTER      CLEAR     39  34  82 CALM      30.07S
ZANESVILLE     CLEAR     38  33  82 N5        30.07S
NEW PHILLY     NOT AVBL
$$




USA.gov is the U.S. government's official web portal to all federal, state and local government web resources and services.